Regional Weather Roundup
Issued by NWS Spokane, WA

Home | Current Version | Previous Version | Text Only | Print | Product List | Glossary On
Versions: 1 2 3 4 5 6 7 8 9 10 11 12 13 14 15 16 17 18 19 20 21 22 23 24 25 26 27 28 29 30 31 32 33 34 35 36 37 38 39 40 41 42 43 44 45 46 47 48 49 50
131
NZUS01 KOTX 291325
RWROTX

Eastern Washington/Northern Idaho Roundup
National Weather Service, Spokane WA
600 AM PDT SAT APR 29 2017

Note: "fair" indicated few or no clouds below 12,000 feet with no
significant weather and/or obstructions to visibility.

...Northeast Washington and Northern Idaho Panhandle...

CITY           SKY/WX    TMP DP  RH WIND       PRES   REMARKS
Spokane Intl   PTCLDY    38  34  85 S8        30.23R
Spokane Downto MOCLDY    47  35  63 CALM      30.24S
Coeur d Alene  CLEAR     41  38  89 S8        30.24S
Deer Park      MOCLDY    42  34  73 S8        30.24R
Sandpoint      PTCLDY    37  37 100 CALM      30.25S
Bonners Ferry  CLOUDY    39  37  93 SE3       30.23S

...Southeast Washington and southern Idaho Panhandle...

CITY           SKY/WX    TMP DP  RH WIND       PRES   REMARKS
Walla Walla    CLEAR     41  34  76 E6        30.26S
Pullman/Moscow CLEAR     38  34  85 E7        30.27R
Lewiston       CLEAR     40  37  89 SE5       30.28R
Lowell           N/A     37  33  85 S3        30.36R
Grangeville    FAIR      32  32 100 SE3       30.26S

...Columbia Basin...

CITY           SKY/WX    TMP DP  RH WIND       PRES   REMARKS
Ephrata        CLEAR     40  26  57 NW8       30.21S
Moses Lake     CLEAR     35  30  82 SE6       30.23S
Pasco          CLEAR     35  32  88 CALM      30.27S
Richland       SUNNY     39  37  89 CALM      30.27R
Hermiston      CLEAR     35  34  96 CALM      30.26F
Pendleton      CLEAR     35  32  88 SE9       30.25F WCI  28

...East Slopes Cascades...

CITY           SKY/WX    TMP DP  RH WIND       PRES   REMARKS
The Dalles     CLEAR     39  37  92 CALM      30.28S
Yakima         CLEAR     37  31  78 W9        30.25S
Ellensburg     CLEAR     32  26  78 E3        30.22S
Stampede Pass  CLEAR     31  31 100 VRB5      30.20S WCI  26
Wenatchee      CLEAR     42  30  62 NW8       30.23R
Omak           CLEAR     36  27  69 N7        30.21F
Chelan           N/A     41  29  61 MISG        N/A
Sunnyside      SUNNY     32  30  93 CALM      30.25S

...Southern British Columbia...

CITY           SKY/WX    TMP DP  RH WIND       PRES   REMARKS
Penticton      CLEAR     34  28  80 NE2       30.24F
Castlegar      PTCLDY    34  32  93 SE3       30.23
Cranbrook      MOCLDY    32  30  93 S6        30.21R WCI  26
Osoyoos          N/A     39  30  70 N2          N/A
Creston          N/A     41  36  81 E7          N/A

...Western Montana...

CITY           SKY/WX    TMP DP  RH WIND       PRES   REMARKS
Kalispell      CLOUDY    39  39 100 W3        30.23R
Libby            N/A     36  36 100 MISG      30.24S VSB 0
Missoula       CLOUDY    35  31  85 CALM      30.27R

...Neighboring Cities...

CITY           SKY/WX    TMP DP  RH WIND       PRES   REMARKS
Seattle        PTCLDY    43  38  82 SE5       30.29F
Portland       PTCLDY    42  39  89 E5        30.31F
Boise          CLEAR     35  30  82 CALM      30.22R
Great Falls    CLEAR     31  28  89 SW8       30.18R WCI  23
Calgary        MOCLDY    36  32  87 SW3       30.11S



USA.gov is the U.S. government's official web portal to all federal, state and local government web resources and services.